www.pogodaiklimat.ru

Погода и климат >> Архив погоды >> Россия >> Камчатский край >> Сосновка


ПОГОДА в Сосновке

  • Прогноз погоды в Сосновке
  • Монитор погоды в Сосновке
  • Климат города

АРХИВ ПОГОДЫ в Сосновке

Время (UTC), дата Ветер
(напр.,м/с)
 
Видим.   Явления Облачность Т
(С)
Тd
(С)
f
(%)
Тe
(С)
Тes
(С)
Комфортность P
(гПа)
Po
(гПа)
Тmin
(С)
Tmax
(С)
R
(мм)
R24
(мм)
S
(см)
18 11.12 штиль 0 50 км ясно -18.6 -21.2 80 -19 -19 1004.1 998.7
21 11.12 штиль 0 50 км ясно -14.2 -18.5 70 -14 -14 1008.0 1002.7 -19.3
00 12.12 З 1 50 км 1 балл -6.3 -14.3 53 -8 -7 1009.2 1004.0
03 12.12 З 5 50 км 1 балл -4.5 -19.4 30 -11 -10 1009.1 1004.0
06 12.12 З 4 50 км ясно -8.7 -19.3 42 -15 -15 1011.9 1006.7
09 12.12 З 2 50 км ясно -10.7 -23.2 35 -15 -15 1013.3 1008.0 -4.5
12 12.12 СЗ 1 50 км 2 балла -15.1 -23.2 50 -18 -18 1014.7 1009.3
15 12.12 штиль 0 50 км 2 балла -19.7 -23.0 75 -20 -20 1014.8 1009.3
18 12.12 штиль 0 50 км 2 балла -21.4 -23.9 80 -21 -21 1013.5 1008.0
21 12.12 ЮЗ 1 50 км 4 балла -21.5 -22.7 90 -25 -25 1013.5 1008.0 -21.8
00 13.12 штиль 0 50 км ясно -17.7 -19.6 85 -18 -17 1012.1 1006.7
03 13.12 штиль 0 50 км 2 балла -9.8 -16.9 56 -10 -9 1009.2 1004.0
06 13.12 штиль 0 50 км 1 балл -15.6 -19.0 75 -16 -16 1008.0 1002.7
09 13.12 штиль 0 50 км ясно -18.7 -20.6 85 -19 -19 1008.1 1002.7 -9.9
12 13.12 штиль 0 50 км 4 балла -19.4 -21.3 85 -19 -19 1006.7 1001.3
15 13.12 штиль 0 50 км 4 балла -21.7 -23.5 85 -22 -22 1008.2 1002.7
18 13.12 штиль 0 50 км 5 баллов -23.0 -25.6 79 -23 -23 1008.2 1002.7
21 13.12 штиль 0 50 км ясно -23.2 -24.4 90 -23 -23 1008.2 1002.7 -23.5
00 14.12 штиль 0 50 км 2 балла -19.7 -21.6 85 -20 -19 1008.1 1002.7
03 14.12 штиль 0 50 км 4 балла -13.4 -16.1 80 -13 -13 1006.6 1001.3
06 14.12 штиль 0 50 км 4 балла -16.3 -19.7 75 -16 -16 1006.6 1001.3
09 14.12 штиль 0 50 км 2 балла -15.3 -18.7 75 -15 -15 1006.6 1001.3 -10.9
12 14.12 СЗ 1 50 км 2 балла -17.5 -19.4 85 -20 -20 1005.4 1000.0
15 14.12 штиль 0 50 км 4 балла -20.7 -22.5 85 -21 -21 1005.4 1000.0
18 14.12 штиль 0 50 км 4 балла -20.9 -22.7 85 -21 -21 1005.4 1000.0
21 14.12 З 1 50 км ясно -19.4 -20.0 95 -22 -22 1004.1 998.7 -21.8
00 15.12 штиль 0 50 км ясно -18.2 -20.1 85 -18 -17 1002.7 997.3 -20.8
03 15.12 З 4 50 км ясно -5.1 -18.5 34 -11 -10 1002.4 997.3
06 15.12 СЗ 2 50 км ясно -11.7 -18.9 55 -16 -16 1005.2 1000.0
09 15.12 С 2 50 км 2 балла -15.1 -20.2 65 -20 -20 1005.3 1000.0 -4.8
12 15.12 штиль 0 50 км 4 балла -18.7 -22.0 75 -19 -19 1005.4 1000.0
15 15.12 ЮВ 1 50 км 4 балла -20.8 -22.6 85 -24 -24 1004.1 998.7
18 15.12 ЮВ 1 50 км 2 балла -22.4 -24.2 85 -26 -26 1004.2 998.7
21 15.12 штиль 0 50 км ясно -20.8 -22.6 85 -21 -21 1005.4 1000.0 -22.4
00 16.12 штиль 0 50 км ясно -16.3 -19.7 75 -16 -15 1005.3 1000.0 -23.2
03 16.12 штиль 0 50 км ясно -6.9 -15.3 51 -7 -6 1003.8 998.7
06 16.12 З 2 50 км ясно -8.8 -17.3 50 -13 -13 1005.2 1000.0
09 16.12 Ю 1 50 км ясно -15.0 -18.4 75 -18 -18 1004.0 998.7 -6.2
12 16.12 штиль 0 50 км ясно -15.4 -18.8 75 -15 -15 1005.3 1000.0
15 16.12 З 2 50 км ясно -14.0 -19.1 65 -19 -19 1006.6 1001.3
18 16.12 З 1 50 км ясно -16.5 -19.9 75 -19 -19 1009.4 1004.0
21 16.12 штиль 0 50 км 1 балл -19.3 -19.9 95 -19 -19 1012.1 1006.7 -19.7
00 17.12 штиль 0 50 км 9 баллов -15.4 -17.3 85 -15 -15 1013.4 1008.0
03 17.12 штиль 0 50 км 2 балла -7.3 -14.3 57 -8 -7 1013.2 1008.0
06 17.12 штиль 0 50 км 9 баллов -14.2 -17.6 75 -14 -14 1014.6 1009.3
09 17.12 штиль 0 20 км 9 баллов -14.8 -16.7 85 -15 -15 1014.7 1009.3 -6.7
12 17.12 штиль 0 20 км 9 баллов -14.6 -17.3 80 -15 -15 1013.3 1008.0
15 17.12 Ю 1 4000 м слабый ливневой снег 10 баллов -12.6 -14.6 85 -15 -15 1012.0 1006.7
18 17.12 СВ 2 2000 м ливневой снег 10 баллов -4.7 -5.2 96 -9 -9 1009.1 1004.0
21 17.12 В 4 2000 м ливневой снег 10 баллов -2.2 -2.2 100 -8 -8 1005.0 1000.0 -16.1 8
00 18.12 В 3 1000 м ливневой снег 10 баллов -1.6 -1.5 101 -7 -7 999.7 994.7
03 18.12 В 3 500 м ливневой снег 10 баллов -0.8 -0.8 100 -6 -6 991.7 986.7
06 18.12 СВ 7 500 м слабый ливневой снег 10 баллов -0.2 -0.2 100 -8 -8 984.9 980.0
09 18.12 В 6 2000 м слабый ливневой снег 10 баллов +0.4 -1.8 85 -6 -6 978.2 973.3 +0.4 19
12 18.12 З 3 2000 м слабый ливневой снег 10 баллов +0.2 -0.4 96 -5 -5 976.9 972.0

 

Местоположение метеостанции Сосновка (Камчатский край, Россия): широта 53.08 долгота 158.30 высота над уровнем моря 40 м.

В архиве по умолчанию представлена погода в Сосновке за последнюю неделю. Архивные данные за месяц целиком и за предыдущие месяцы, начиная с января 2011 года, Вы можете получить, выбрав интересующий диапазон дат из раскрывающегося списка и нажав кнопку "Ввод!".


*Определитесь, кто Вы:
робот инопланетянин человек

Внимание! Время в таблицах - всемирное. Для получения местного времени необходимо прибавить поправку, которая в Сосновке равна 12 ч.

Смотрите также архив погоды в соседних городах и на ближайших метеорологических станциях:

Погода в Петропавловск-Камч. 2 (Камчатский край, Россия) (13 км)
Погода в Петропавловск-Камчатском (Камчатский край, Россия) (31 км)
Погода в Петропавловском Маяке (Камчатский край, Россия) (35 км)
Погода в Начиках (Камчатский край, Россия) (40 км)
Погода в Пущино (Камчатский край, Россия) (124 км)
Погода в Большерецке (Камчатский край, Россия) (137 км)
Погода в Водопадной (Камчатский край, Россия) (142 км)
Погода в Семячике (Камчатский край, Россия) (157 км)
Погода в Мильково (Камчатский край, Россия) (178 км)
Погода в Соболево (Камчатский край, Россия) (208 км)

Пояснения к столбцам:

Ветер - указаны скорость ветра в м/с - средняя за 10 мин, порывы в срок и между сроками (в фигурных скобках) и направление, откуда дует ветер: С - северный, СВ - северо-восточный, В - восточный, ЮВ - юго-восточный, Ю - южный, ЮЗ - юго-западный, З - западный, СЗ - северо-западный.
Видимость - горизонтальная дальность видимости в метрах или километрах. При видимости от 1 до 10 км при отсутствии осадков обычно наблюдается дымка, при ухудшении видимости до 1 км и менее - туман. В сухую погоду видимость может ухудшаться дымом, пылью или мглою.
Явления - указаны атмосферные явления, наблюдавшиеся в срок или в последний час перед сроком; фигурными скобками обозначены явления, наблюдавшиеся между сроками (за 1-3 часа до срока); квадратными скобками обозначены град или гололедные отложения с указанием их диаметра в мм.
Облачность - указаны через наклонную черту общая и нижняя облачность в баллах и высота нижней границы облаков в метрах; квадратными скобками обозначены формы облаков: Ci - перистые, Cs - перисто-слоистые, Cc - перисто-кучевые, Ac - высококучевые, As - высокослоистые, Sc - слоисто-кучевые, Ns - слоисто-дождевые, Cu - кучевые, Cb - кучево-дождевые. Подробнее классификацию облаков см. в Атласе облаков (PDF).
T - Температура воздуха - температура, измеренная на высоте 2 м над землей.
Td - Температура точки росы - температура, при понижении до которой содержащийся в воздухе водяной пар достигнет насыщения.
f - Относительная влажность воздуха - влажноcть воздуха, измеренная на высоте 2 м над землей.
Te - Эффективная температура - температура, которую ощущает одетый по сезону человек в тени. Характеристика душности погоды. При расчете учитывается влияние влажности воздуха и скорости ветра на теплоощущения человека.
Tes - Эффективная температура на солнце - температура, которую ощущает человек, с поправкой на солнечный нагрев. Характеристика знойности погоды. Зависит от высоты солнца над горизонтом, облачности и скорости ветра. Ночью, в пасмурную погоду, а также при ветре 12 м/с и более поправка равна нулю.
P - Атмосферное давление - приведенное к уровню моря атмосферное давление.
Po - Атмосферное давление - измеренное на уровне метеостанции атмосферное давление.
Tmin - Минимальная температура - минимум температуры воздуха на высоте 2 м над землей.
Tmax - Максимальная температура - максимум температуры воздуха на высоте 2 м над землей.
R - Количество осадков - Количество выпавших осадков за период времени, мм. При наведении курсора мыши на число - период времени, за который выпало указанное количество осадков.
R24 - Количество осадков - Количество выпавших осадков за 24 часа, мм.
S - Снежный покров - Высота снежного покрова, см. При наведении курсора мыши на число - состояние снежного покрова и степень покрытия местности в баллах.